Regional Weather Roundup
Issued by NWS

Home | Current Version | Previous Version | Text Only | Print | Product List | Glossary Off
Versions: 1 2 3 4 5 6 7 8 9 10 11 12 13 14 15 16 17 18 19 20 21 22 23 24 25 26 27 28 29 30 31 32 33 34 35 36 37 38 39 40 41 42 43 44 45 46 47 48 49 50

000
ASUS45 KBOU 281107
RWRCO

WEATHER ROUNDUP FOR COLORADO
NATIONAL WEATHER SERVICE DENVER/BOULDER CO
400 AM MST SUN DEC 28 2014

NOTE: "FAIR" INDICATES FEW OR NO CLOUDS BELOW 12000 FEET WITH NO
SIGNIFICANT WEATHER AND/OR OBSTRUCTIONS TO VISIBILITY.

COZ001>005-013-030-031-281200-
...NORTHWEST COLORADO...

CITY           SKY/WX    TMP DP  RH WIND       PRES   REMARKS
CRAIG          CLOUDY    12   5  73 CALM      30.10F
HAYDEN         CLOUDY     9   1  72 E13       30.07F WCI  -7
MEEKER         CLOUDY    15   7  70 CALM      30.10F
MOUNT WERNER   NOT AVBL
STEAMBOAT SPGS CLOUDY     2  -2  85 CALM      30.08F
WALDEN         CLOUDY    12   1  62 S18G25    29.94F WCI  -5
$$

COZ006>008-011-281200-
...WEST CENTRAL VALLEYS...

CITY           SKY/WX    TMP DP  RH WIND       PRES   REMARKS
GRAND JUNCTION MOCLDY    17  10  74 SE8       30.21F WCI   7
MONTROSE       MOCLDY    14   7  73 SE6       30.22F WCI   5
EAGLE          CLOUDY     5   1  85 E5        30.16F WCI  -4
RIFLE          CLOUDY    14   7  73 CALM      30.20F
DELTA          MOCLDY    17   9  70 N5        30.23F WCI  10
NUCLA          MOCLDY    14   7  73 CALM      30.24F
$$

COZ017>023-064>068-281200-
...SOUTHWEST COLORADO...

CITY           SKY/WX    TMP DP  RH WIND       PRES   REMARKS
DURANGO        MOCLDY     2  -2  83 CALM      30.18F
CORTEZ         CLEAR      5   1  83 E6        30.23F WCI  -6
PAGOSA SPRINGS MOCLDY     3   0  89 CALM      30.13S
TELLURIDE      CLOUDY    11  -2  55 SE3       30.10S
WOLF CREEK PAS MOCLDY     3  -4  72 MISG      29.99F
$$

COZ009-010-012-014-032>034-037-058>063-281200-
...CENTRAL COLORADO...

CITY           SKY/WX    TMP DP  RH WIND       PRES   REMARKS
ASPEN          CLOUDY     5  -1  76 CALM      30.06F
BUENA VISTA    PTCLDY    -3 -10  72 W7        29.99S WCI -17
COPPER MTN     CLOUDY    10  -9  40 SW8       29.91F WCI  -1
BERTHOUD PASS  NOT AVBL
COTTONWOOD PAS PTCLDY    23  -9  23 W16G32    29.92F WCI  10
GUNNISON       MOCLDY   -18 N/A N/A E6        30.20F WCI -33
KREMMLING      CLOUDY     0  -6  78 CALM      30.09F
LEADVILLE      CLOUDY    14  -9  35 N12       29.94F WCI   0
SALIDA         PTCLDY     8  -3  59 NW6       30.05F WCI  -2
SUNLIGHT       CLOUDY   N/A N/A N/A CALM      29.97F HAZE
WILKERSON PASS PTCLDY     9 -13  37 W13G22    29.88S WCI  -7
$$

COZ069>075-281200-
...SAN LUIS VALLEY/SANGRE DE CRISTO MOUNTAINS...

CITY           SKY/WX    TMP DP  RH WIND       PRES   REMARKS
ALAMOSA        PTCLDY    -9 -15  75 NE3       30.12F
LA VETA PASS   NOT AVBL
SAGUACHE       MOCLDY     1  -8  66 NW15      30.11F WCI -18
$$

COZ035-036-038>040-281200-
...NORTHERN COLORADO FRONT RANGE...

CITY           SKY/WX    TMP DP  RH WIND       PRES   REMARKS
DENVER INTL AP MOCLDY    13   5  70 S5        29.91F WCI   5
DMNS CITY PARK   N/A     13   6  72 NW2       29.92F
AURORA         MOCLDY    16   2  56 SW6       29.91F WCI   7
FRONT RANGE AP MOCLDY    19   9  63 S20       29.92F WCI   4
ERIE MUNI ARPT   N/A    N/A N/A N/A MISG      29.95F
BOULDER MUN AP MOCLDY    14  10  85 CALM      29.93F
CENTENNIAL     MOCLDY    14   4  64 CALM      29.89F
BROOMFIELD     MOCLDY    14  10  85 W3        29.92F
FORT COLLINS   MOCLDY     9   3  78 CALM      29.96F
LONGMONT       MOCLDY     8   5  85 CALM      29.97F
$$

COZ041-046-047-076>085-087-088-281200-
...PIKES PEAK/PALMER DIVIDE AND SOUTHERN FOOTHILLS...

CITY           SKY/WX    TMP DP  RH WIND       PRES   REMARKS
COLO. SPRINGS  MOCLDY    16   6  65 N3        29.94F
A. F. ACADEMY  MOCLDY    11   3  68 NE5       29.91F WCI   3
ELLICOTT       NOT AVBL
FALCON         MOCLDY    15   6  67 CALM      29.92F
FORT CARSON    MOCLDY    14   8  77 N5        29.93F WCI   6
LIMON          PTCLDY    -1  -5  82 N3        29.96F
MONUMENT HILL  MOCLDY    14   3  62 S9        29.89F WCI   2
TRINIDAD       PTCLDY     6   0  76 W10       29.98F WCI  -9
$$

COZ042>045-048>051-090-091-281200-
...NORTHEAST COLORADO...

CITY           SKY/WX    TMP DP  RH WIND       PRES   REMARKS
GREELEY ARPT   MOCLDY     0  -6  78 NW5       29.96F WCI -10
AKRON          MOCLDY     9   3  77 W9        29.96F WCI  -4
BURLINGTON     PTCLDY    10   5  80 SW10      30.01F WCI  -4
WRAY           PTCLDY     6   2  83 SW7       30.05S WCI  -6
STERLING       MOCLDY    -4  -8  84 SW3       30.01F
HOLYOKE        PTCLDY     5   0  78 W5        30.02F WCI  -4
FORT MORGAN    MOCLDY    -5  -9  82 SW9       29.98F WCI -22
$$

COZ086-089-092>099-281200-
...SOUTHEAST COLORADO...

CITY           SKY/WX    TMP DP  RH WIND       PRES   REMARKS
PUEBLO         MOCLDY    10   6  84 CALM      30.00F
LA JUNTA       MOCLDY     7   3  84 W6        30.03F WCI  -3
LAMAR          PTCLDY     5   2  87 W7        30.04F WCI  -7
SPRINGFIELD      N/A     12   7  80 W5        30.01F WCI   4
$$


USA.gov is the U.S. government's official web portal to all federal, state and local government web resources and services.